| time (UTC) | temp C | wind direction | speed KPH | gust KPH | rain 1hr cm | rain 24hr cm | rain mn cm | humidity % | barometer mb |
| 20260507094059 | 12 | 17 | 4.8 | 12.9 | 0.00 | 1.09 | 0.00 | 42 | 1015.7 |
| 20260507093559 | 12 | 19 | 3.2 | 8.0 | 0.00 | 1.09 | 0.00 | 43 | 1015.7 |
| 20260507093059 | 12 | 40 | 1.6 | 8.0 | 0.00 | 1.09 | 0.00 | 43 | 1015.7 |
| 20260507092556 | 12 | 38 | 1.6 | 8.0 | 0.00 | 1.09 | 0.00 | 44 | 1015.6 |
| 20260507092057 | 12 | 48 | 0.0 | 6.4 | 0.00 | 1.09 | 0.00 | 44 | 1015.5 |
| 20260507091556 | 13 | 355 | 0.0 | 6.4 | 0.00 | 1.09 | 0.00 | 44 | 1015.4 |
| 20260507091101 | 13 | 25 | 1.6 | 8.0 | 0.00 | 1.09 | 0.00 | 44 | 1015.4 |
| 20260507090601 | 13 | 36 | 3.2 | 11.3 | 0.00 | 1.09 | 0.00 | 44 | 1015.3 |
| 20260507090100 | 13 | 34 | 6.4 | 16.1 | 0.00 | 1.09 | 0.00 | 45 | 1015.2 |
| 20260507085602 | 13 | 349 | 6.4 | 16.1 | 0.00 | 1.09 | 0.00 | 45 | 1015.3 |
| 20260507085405 | 13 | 26 | 3.2 | 14.5 | 0.00 | 1.09 | 0.00 | 45 | 1015.0 |
| 20260507084544 | 13 | 25 | 1.6 | 14.5 | 0.00 | 1.09 | 0.00 | 45 | 1015.2 |
| 20260507084046 | 13 | 5 | 1.6 | 0.0 | 0.00 | 1.09 | 0.00 | 45 | 1015.1 |
| 20260507083708 | 13 | 28 | 0.0 | 8.0 | 0.00 | 1.09 | 0.00 | 45 | 1015.3 |
| 20260507083200 | 13 | 20 | 0.0 | 4.8 | 0.00 | 1.09 | 0.00 | 45 | 1015.5 |
| 20260507082701 | 13 | 19 | 0.0 | 4.8 | 0.00 | 1.09 | 0.00 | 45 | 1015.3 |
| 20260507082512 | 13 | 48 | 0.0 | 4.8 | 0.00 | 1.09 | 0.00 | 45 | 1015.2 |
| 20260507081705 | 13 | 44 | 0.0 | 8.0 | 0.00 | 1.09 | 0.00 | 44 | 1015.1 |
| 20260507081200 | 13 | 46 | 0.0 | 8.0 | 0.00 | 1.09 | 0.00 | 43 | 1015.3 |
| 20260507080704 | 13 | 63 | 0.0 | 1.6 | 0.00 | 1.09 | 0.00 | 43 | 1015.5 |
| 20260507080505 | 13 | 63 | 0.0 | 0.0 | 0.00 | 1.09 | 0.00 | 43 | 1015.6 |
| 20260507075701 | 13 | 64 | 0.0 | 0.0 | 0.00 | 1.09 | 0.00 | 44 | 1015.7 |
| 20260507075159 | 13 | 64 | 0.0 | 0.0 | 0.00 | 1.09 | 0.00 | 44 | 1015.8 |
| 20260507074958 | 13 | 64 | 0.0 | 0.0 | 0.00 | 1.09 | 0.00 | 44 | 1015.7 |
| 20260507074515 | 13 | 64 | 0.0 | 0.0 | 0.00 | 1.09 | 0.00 | 44 | 1015.6 |
| 20260507073654 | 13 | 64 | 0.0 | 0.0 | 0.00 | 1.09 | 0.00 | 44 | 1015.5 |
| 20260507073152 | 13 | 64 | 0.0 | 0.0 | 0.00 | 1.09 | 0.00 | 44 | 1015.4 |
| 20260507072649 | 13 | 64 | 0.0 | 0.0 | 0.00 | 1.09 | 0.00 | 43 | 1015.4 |
| 20260507072144 | 13 | 64 | 0.0 | 0.0 | 0.00 | 1.09 | 0.00 | 43 | 1015.3 |
| 20260507071637 | 13 | 64 | 0.0 | 0.0 | 0.00 | 1.09 | 0.00 | 43 | 1015.2 |
| 20260507071141 | 13 | 64 | 0.0 | 0.0 | 0.00 | 1.09 | 0.00 | 43 | 1015.2 |
| 20260507070409 | 13 | 64 | 0.0 | 8.0 | 0.00 | 1.09 | 0.00 | 43 | 1015.0 |
| 20260507065909 | 13 | 63 | 0.0 | 8.0 | 0.00 | 1.09 | 0.00 | 43 | 1014.5 |
| 20260507065054 | 13 | 40 | 0.0 | 3.2 | 0.00 | 1.09 | 0.00 | 42 | 1014.0 |
| 20260507064554 | 13 | 71 | 0.0 | 0.0 | 0.00 | 1.09 | 0.00 | 41 | 1014.0 |
| 20260507064053 | 13 | 71 | 0.0 | 0.0 | 0.00 | 1.09 | 0.00 | 41 | 1014.0 |
| 20260507063549 | 13 | 71 | 0.0 | 0.0 | 0.00 | 1.09 | 0.00 | 41 | 1014.1 |
| 20260507063054 | 13 | 71 | 0.0 | 0.0 | 0.00 | 1.09 | 0.00 | 40 | 1013.9 |
| 20260507062541 | 13 | 71 | 0.0 | 0.0 | 0.00 | 1.09 | 0.00 | 40 | 1013.8 |
| 20260507062040 | 13 | 49 | 0.0 | 0.0 | 0.00 | 1.09 | 0.00 | 40 | 1013.8 |
| 20260507061540 | 13 | 49 | 0.0 | 0.0 | 0.00 | 1.09 | 0.00 | 39 | 1013.6 |
| 20260507061001 | 13 | 49 | 0.0 | 1.6 | 0.00 | 1.09 | 0.00 | 39 | 1013.7 |
| 20260507060501 | 13 | 49 | 0.0 | 1.6 | 0.00 | 1.09 | 0.00 | 39 | 1013.9 |
| 20260507060323 | 13 | 40 | 0.0 | 1.6 | 0.00 | 1.09 | 0.00 | 39 | 1013.9 |
| 20260507055807 | 14 | 63 | 0.0 | 1.6 | 0.00 | 1.09 | 0.00 | 39 | 1014.1 |
| 20260507055007 | 14 | 63 | 0.0 | 1.6 | 0.00 | 1.09 | 0.00 | 39 | 1013.9 |
| 20260507054505 | 14 | 63 | 0.0 | 1.6 | 0.00 | 1.09 | 0.00 | 39 | 1013.9 |
| 20260507054003 | 14 | 63 | 0.0 | 0.0 | 0.00 | 1.09 | 0.00 | 39 | 1013.8 |
| 20260507053459 | 14 | 63 | 0.0 | 0.0 | 0.00 | 1.09 | 0.00 | 39 | 1013.9 |
| 20260507052957 | 14 | 63 | 0.0 | 0.0 | 0.00 | 1.09 | 0.00 | 39 | 1013.8 |
| 20260507052458 | 14 | 63 | 0.0 | 3.2 | 0.00 | 1.09 | 0.00 | 39 | 1013.9 |
| 20260507051956 | 14 | 63 | 0.0 | 3.2 | 0.00 | 1.09 | 0.00 | 39 | 1013.8 |
| 20260507051456 | 14 | 77 | 0.0 | 1.6 | 0.00 | 1.09 | 0.00 | 39 | 1013.9 |
| 20260507051302 | 14 | 77 | 0.0 | 1.6 | 0.00 | 1.09 | 0.00 | 40 | 1014.0 |
| 20260507050443 | 14 | 72 | 0.0 | 4.8 | 0.00 | 1.09 | 0.00 | 40 | 1014.0 |
| 20260507045936 | 14 | 74 | 0.0 | 4.8 | 0.00 | 1.09 | 1.09 | 41 | 1013.9 |
| 20260507045435 | 14 | 74 | 0.0 | 4.8 | 0.00 | 1.09 | 1.09 | 41 | 1013.9 |
| 20260507044936 | 14 | 72 | 0.0 | 0.0 | 0.00 | 1.09 | 1.09 | 41 | 1014.0 |
| 20260507044433 | 14 | 72 | 0.0 | 0.0 | 0.00 | 1.09 | 1.09 | 42 | 1014.0 |
| 20260507043931 | 14 | 72 | 0.0 | 0.0 | 0.00 | 1.09 | 1.09 | 42 | 1014.0 |
| 20260507043432 | 14 | 72 | 0.0 | 6.4 | 0.00 | 1.09 | 1.09 | 42 | 1014.1 |
| 20260507043234 | 14 | 72 | 1.6 | 6.4 | 0.00 | 1.09 | 1.09 | 43 | 1014.2 |
| 20260507042437 | 14 | 72 | 0.0 | 4.8 | 0.00 | 1.09 | 1.09 | 43 | 1014.2 |
| 20260507042246 | 14 | 60 | 0.0 | 4.8 | 0.00 | 1.09 | 1.09 | 44 | 1014.2 |
| 20260507041437 | 15 | 60 | 0.0 | 4.8 | 0.00 | 1.09 | 1.09 | 45 | 1014.2 |
| 20260507040932 | 15 | 60 | 0.0 | 0.0 | 0.00 | 1.09 | 1.09 | 46 | 1014.2 |
| 20260507040429 | 15 | 60 | 0.0 | 0.0 | 0.00 | 1.09 | 1.09 | 46 | 1014.1 |
| 20260507035930 | 15 | 60 | 0.0 | 0.0 | 0.00 | 1.09 | 1.09 | 47 | 1014.0 |
| 20260507035431 | 15 | 60 | 0.0 | 0.0 | 0.00 | 1.09 | 1.09 | 47 | 1013.9 |
| 20260507034929 | 15 | 60 | 0.0 | 1.6 | 0.00 | 1.09 | 1.09 | 47 | 1013.9 |
| 20260507034431 | 15 | 60 | 0.0 | 3.2 | 0.00 | 1.09 | 1.09 | 47 | 1013.9 |
| 20260507033920 | 15 | 60 | 1.6 | 4.8 | 0.00 | 1.09 | 1.09 | 48 | 1013.8 |
| 20260507033414 | 15 | 60 | 1.6 | 4.8 | 0.00 | 1.09 | 1.09 | 49 | 1013.6 |
| 20260507032912 | 15 | 60 | 1.6 | 4.8 | 0.00 | 1.09 | 1.09 | 50 | 1013.6 |
| 20260507032412 | 15 | 60 | 1.6 | 4.8 | 0.00 | 1.09 | 1.09 | 51 | 1013.5 |
| 20260507031911 | 15 | 60 | 1.6 | 4.8 | 0.00 | 1.09 | 1.09 | 52 | 1013.6 |
| 20260507031412 | 15 | 60 | 0.0 | 3.2 | 0.00 | 1.09 | 1.09 | 53 | 1013.6 |
| 20260507030913 | 15 | 60 | 0.0 | 3.2 | 0.00 | 1.09 | 1.09 | 53 | 1013.6 |
| 20260507030726 | 15 | 60 | 0.0 | 3.2 | 0.00 | 1.09 | 1.09 | 54 | 1013.5 |
| 20260507025916 | 15 | 60 | 0.0 | 1.6 | 0.00 | 1.09 | 1.09 | 54 | 1013.5 |
| 20260507025416 | 15 | 60 | 0.0 | 4.8 | 0.00 | 1.09 | 1.09 | 54 | 1013.4 |
| 20260507024916 | 15 | 60 | 0.0 | 4.8 | 0.00 | 1.09 | 1.09 | 54 | 1013.3 |
| 20260507024416 | 15 | 60 | 0.0 | 1.6 | 0.00 | 1.09 | 1.09 | 55 | 1013.2 |
| 20260507023911 | 15 | 60 | 1.6 | 4.8 | 0.00 | 1.09 | 1.09 | 56 | 1013.2 |
| 20260507023409 | 15 | 60 | 3.2 | 9.7 | 0.00 | 1.09 | 1.09 | 56 | 1013.1 |
| 20260507022909 | 15 | 75 | 4.8 | 11.3 | 0.00 | 1.09 | 1.09 | 57 | 1013.0 |
| 20260507022409 | 15 | 81 | 4.8 | 11.3 | 0.00 | 1.09 | 1.09 | 58 | 1012.9 |
| 20260507022221 | 15 | 71 | 3.2 | 8.0 | 0.00 | 1.09 | 1.09 | 60 | 1012.7 |
| 20260507021726 | 15 | 50 | 4.8 | 8.0 | 0.00 | 1.09 | 1.09 | 61 | 1012.7 |
| 20260507020907 | 16 | 103 | 4.8 | 8.0 | 0.00 | 1.09 | 1.09 | 62 | 1012.5 |
| 20260507020407 | 16 | 56 | 6.4 | 11.3 | 0.00 | 1.09 | 1.09 | 63 | 1012.4 |
| 20260507015908 | 16 | 71 | 6.4 | 14.5 | 0.00 | 1.09 | 1.09 | 64 | 1012.4 |
| 20260507015407 | 16 | 63 | 6.4 | 14.5 | 0.00 | 1.09 | 1.09 | 64 | 1012.3 |
| 20260507014908 | 16 | 32 | 4.8 | 9.7 | 0.00 | 1.09 | 1.09 | 63 | 1012.5 |
| 20260507014403 | 16 | 58 | 4.8 | 12.9 | 0.00 | 1.09 | 1.09 | 63 | 1012.7 |
| 20260507013902 | 16 | 28 | 6.4 | 12.9 | 0.00 | 1.09 | 1.09 | 64 | 1012.7 |
| 20260507013403 | 16 | 42 | 6.4 | 12.9 | 0.00 | 1.09 | 1.09 | 65 | 1012.4 |
| 20260507012903 | 16 | 38 | 6.4 | 12.9 | 0.00 | 1.09 | 1.09 | 65 | 1012.5 |
| 20260507012402 | 16 | 40 | 6.4 | 12.9 | 0.00 | 1.09 | 1.09 | 66 | 1012.7 |
| 20260507011903 | 16 | 34 | 6.4 | 14.5 | 0.00 | 1.09 | 1.09 | 66 | 1012.5 |
| 20260507011403 | 17 | 18 | 6.4 | 14.5 | 0.00 | 1.09 | 1.09 | 67 | 1012.5 |
| 20260507010903 | 17 | 56 | 3.2 | 14.5 | 0.00 | 1.09 | 1.09 | 67 | 1012.5 |
| 20260507010403 | 17 | 61 | 1.6 | 8.0 | 0.00 | 1.09 | 1.09 | 67 | 1012.4 |
| 20260507005904 | 17 | 32 | 3.2 | 8.0 | 0.00 | 1.09 | 1.09 | 68 | 1012.7 |
| 20260507005717 | 17 | 32 | 3.2 | 8.0 | 0.00 | 1.09 | 1.09 | 69 | 1012.5 |
| 20260507004903 | 17 | 38 | 3.2 | 8.0 | 0.00 | 1.09 | 1.09 | 70 | 1012.4 |
| 20260507004403 | 17 | 28 | 4.8 | 9.7 | 0.00 | 1.09 | 1.09 | 70 | 1012.1 |
| 20260507003902 | 17 | 35 | 6.4 | 14.5 | 0.00 | 1.09 | 1.09 | 70 | 1012.0 |
| 20260507003401 | 17 | 40 | 4.8 | 14.5 | 0.00 | 1.09 | 1.09 | 71 | 1011.8 |
| 20260507002903 | 18 | 16 | 4.8 | 9.7 | 0.00 | 1.09 | 1.09 | 71 | 1011.7 |
| 20260507002403 | 18 | 39 | 4.8 | 9.7 | 0.00 | 1.09 | 1.09 | 71 | 1011.6 |
| 20260507001901 | 18 | 46 | 4.8 | 9.7 | 0.00 | 1.09 | 1.09 | 72 | 1011.6 |
| 20260507001727 | 18 | 44 | 4.8 | 9.7 | 0.00 | 1.09 | 1.09 | 72 | 1011.5 |
| 20260507000907 | 18 | 45 | 6.4 | 11.3 | 0.00 | 1.09 | 1.09 | 72 | 1011.5 |
| 20260507000720 | 19 | 46 | 6.4 | 14.5 | 0.00 | 1.09 | 1.09 | 72 | 1011.5 |
| 20260506235901 | 19 | 41 | 6.4 | 14.5 | 0.00 | 1.09 | 1.09 | 72 | 1011.2 |
| 20260506235401 | 19 | 64 | 8.0 | 14.5 | 0.00 | 1.09 | 1.09 | 72 | 1011.3 |
| 20260506234901 | 19 | 24 | 8.0 | 14.5 | 0.00 | 1.09 | 1.09 | 72 | 1011.3 |
| 20260506234402 | 19 | 75 | 6.4 | 14.5 | 0.00 | 1.09 | 1.09 | 72 | 1011.2 |
| 20260506233902 | 19 | 43 | 6.4 | 14.5 | 0.00 | 1.09 | 1.09 | 72 | 1011.2 |
| 20260506233402 | 18 | 73 | 6.4 | 14.5 | 0.00 | 1.09 | 1.09 | 72 | 1011.3 |
| 20260506232903 | 18 | 51 | 8.0 | 12.9 | 0.00 | 1.09 | 1.09 | 72 | 1011.2 |
| 20260506232406 | 18 | 88 | 6.4 | 12.9 | 0.00 | 1.09 | 1.09 | 72 | 1011.3 |
| 20260506231905 | 19 | 53 | 6.4 | 14.5 | 0.00 | 1.09 | 1.09 | 72 | 1011.3 |
| 20260506231409 | 18 | 26 | 6.4 | 14.5 | 0.00 | 1.09 | 1.09 | 72 | 1011.2 |
| 20260506230905 | 19 | 76 | 4.8 | 12.9 | 0.00 | 1.09 | 1.09 | 72 | 1011.2 |
| 20260506230401 | 18 | 32 | 6.4 | 12.9 | 0.00 | 1.09 | 1.09 | 72 | 1011.3 |
| 20260506225902 | 18 | 63 | 8.0 | 12.9 | 0.00 | 1.09 | 1.09 | 72 | 1011.1 |
| 20260506225403 | 18 | 51 | 6.4 | 11.3 | 0.00 | 1.09 | 1.09 | 72 | 1011.2 |
| 20260506224902 | 18 | 35 | 4.8 | 11.3 | 0.00 | 1.09 | 1.09 | 72 | 1011.3 |
| 20260506224711 | 18 | 5 | 4.8 | 8.0 | 0.00 | 1.09 | 1.09 | 71 | 1011.4 |
| 20260506224219 | 18 | 16 | 4.8 | 11.3 | 0.00 | 1.09 | 1.09 | 71 | 1011.3 |
| 20260506223715 | 18 | 72 | 4.8 | 11.3 | 0.00 | 1.09 | 1.09 | 72 | 1011.3 |
| 20260506222900 | 18 | 36 | 4.8 | 12.9 | 0.00 | 1.09 | 1.09 | 71 | 1011.4 |
| 20260506222359 | 18 | 19 | 6.4 | 12.9 | 0.00 | 1.09 | 1.09 | 71 | 1011.3 |
| 20260506221856 | 18 | 18 | 6.4 | 14.5 | 0.00 | 1.09 | 1.09 | 70 | 1011.2 |
| 20260506221722 | 18 | 28 | 6.4 | 14.5 | 0.00 | 1.09 | 1.09 | 70 | 1011.3 |
| 20260506220902 | 18 | 46 | 6.4 | 14.5 | 0.00 | 1.09 | 1.09 | 71 | 1011.4 |
| 20260506220359 | 18 | 34 | 6.4 | 12.9 | 0.00 | 1.09 | 1.09 | 69 | 1011.5 |
| 20260506215854 | 17 | 16 | 6.4 | 12.9 | 0.00 | 1.09 | 1.09 | 69 | 1011.4 |
| 20260506215352 | 17 | 0 | 6.4 | 0.0 | 0.00 | 1.09 | 1.09 | 68 | 1011.4 |
| 20260506214800 | 17 | 20 | 6.4 | 12.9 | 0.00 | 1.09 | 1.09 | 70 | 1011.4 |
| 20260506214612 | 17 | 49 | 4.8 | 11.3 | 0.00 | 1.09 | 1.09 | 68 | 1011.5 |
| 20260506214122 | 17 | 321 | 4.8 | 11.3 | 0.00 | 1.09 | 1.09 | 66 | 1011.5 |
| 20260506213258 | 17 | 40 | 6.4 | 11.3 | 0.00 | 1.09 | 1.09 | 68 | 1011.5 |
| 20260506213253 | 17 | 50 | 4.8 | 11.3 | 0.00 | 1.09 | 1.09 | 66 | 1011.5 |
| 20260506212857 | 17 | 26 | 4.8 | 9.7 | 0.00 | 1.09 | 1.09 | 67 | 1011.6 |
| 20260506212123 | 16 | 43 | 6.4 | 11.3 | 0.00 | 1.09 | 1.09 | 66 | 1011.5 |
| 20260506211304 | 16 | 28 | 8.0 | 14.5 | 0.00 | 1.09 | 1.09 | 64 | 1011.4 |
| 20260506210756 | 16 | 11 | 8.0 | 14.5 | 0.00 | 1.09 | 1.09 | 65 | 1011.4 |
| 20260506210250 | 16 | 0 | 6.4 | 14.5 | 0.00 | 1.09 | 1.09 | 64 | 1011.6 |
| 20260506205747 | 16 | 15 | 6.4 | 0.0 | 0.00 | 1.09 | 1.09 | 62 | 1011.7 |
| 20260506205520 | 16 | 40 | 6.4 | 14.5 | 0.00 | 1.09 | 1.09 | 62 | 1011.8 |
| 20260506205018 | 16 | 23 | 8.0 | 14.5 | 0.00 | 1.09 | 1.09 | 62 | 1011.8 |
| 20260506204839 | 16 | 292 | 8.0 | 14.5 | 0.00 | 1.09 | 1.09 | 63 | 1011.9 |
| 20260506204012 | 16 | 348 | 8.0 | 16.1 | 0.00 | 1.09 | 1.09 | 64 | 1011.9 |
| 20260506203504 | 16 | 322 | 8.0 | 14.5 | 0.00 | 1.09 | 1.09 | 65 | 1011.9 |
| 20260506203002 | 16 | 347 | 8.0 | 14.5 | 0.00 | 1.09 | 1.09 | 64 | 1012.1 |
| 20260506202502 | 16 | 309 | 8.0 | 14.5 | 0.00 | 1.09 | 1.09 | 62 | 1012.2 |
| 20260506202002 | 16 | 327 | 8.0 | 16.1 | 0.00 | 1.09 | 1.09 | 60 | 1012.1 |
| 20260506201502 | 16 | 0 | 8.0 | 16.1 | 0.00 | 1.09 | 1.09 | 59 | 1012.4 |
| 20260506201003 | 15 | 15 | 9.7 | 16.1 | 0.00 | 1.09 | 1.09 | 59 | 1012.2 |
| 20260506200827 | 15 | 343 | 9.7 | 14.5 | 0.00 | 1.09 | 1.09 | 60 | 1012.3 |
| 20260506200004 | 15 | 346 | 8.0 | 14.5 | 0.00 | 1.09 | 1.09 | 58 | 1012.2 |
| 20260506195503 | 15 | 315 | 8.0 | 14.5 | 0.00 | 1.09 | 1.09 | 58 | 1012.4 |
| 20260506195007 | 15 | 331 | 8.0 | 14.5 | 0.00 | 1.09 | 1.09 | 55 | 1012.2 |
| 20260506194513 | 15 | 351 | 8.0 | 0.0 | 0.00 | 1.09 | 1.09 | 54 | 1012.2 |
| 20260506193442 | 15 | 331 | 9.7 | 19.3 | 0.00 | 1.09 | 1.09 | 51 | 1012.0 |
| 20260506192936 | 15 | 345 | 8.0 | 16.1 | 0.00 | 1.09 | 1.09 | 46 | 1012.2 |
| 20260506192436 | 15 | 344 | 9.7 | 16.1 | 0.00 | 1.09 | 1.09 | 46 | 1012.4 |
| 20260506191935 | 15 | 320 | 8.0 | 16.1 | 0.00 | 1.09 | 1.09 | 47 | 1012.4 |
| 20260506191436 | 15 | 355 | 8.0 | 16.1 | 0.00 | 1.09 | 1.09 | 45 | 1012.2 |
| 20260506190935 | 15 | 319 | 8.0 | 14.5 | 0.00 | 1.09 | 1.09 | 43 | 1012.0 |
| 20260506190920 | 15 | 355 | 9.7 | 20.9 | 0.00 | 1.09 | 1.09 | 45 | 1012.8 |
| 20260506190531 | 15 | 349 | 9.7 | 20.9 | 0.00 | 1.09 | 1.09 | 44 | 1012.5 |
| 20260506185756 | 14 | 5 | 9.7 | 17.7 | 0.00 | 1.09 | 1.09 | 44 | 1012.4 |
| 20260506184936 | 14 | 313 | 9.7 | 19.3 | 0.00 | 1.09 | 1.09 | 43 | 1012.2 |
| 20260506184437 | 14 | 340 | 9.7 | 19.3 | 0.00 | 1.09 | 1.09 | 44 | 1012.4 |
| 20260506183936 | 14 | 344 | 9.7 | 22.5 | 0.00 | 1.09 | 1.09 | 44 | 1012.5 |
| 20260506183436 | 14 | 315 | 11.3 | 22.5 | 0.00 | 1.09 | 1.09 | 45 | 1012.5 |
| 20260506182938 | 15 | 27 | 11.3 | 20.9 | 0.00 | 1.09 | 1.09 | 44 | 1012.4 |
| 20260506182430 | 15 | 337 | 11.3 | 20.9 | 0.00 | 1.09 | 1.09 | 43 | 1012.7 |
| 20260506181929 | 15 | 323 | 9.7 | 19.3 | 0.00 | 1.09 | 1.09 | 39 | 1012.7 |
| 20260506181430 | 15 | 20 | 9.7 | 19.3 | 0.00 | 1.09 | 1.09 | 39 | 1012.5 |
| 20260506180930 | 15 | 5 | 8.0 | 17.7 | 0.00 | 1.09 | 1.09 | 38 | 1012.9 |
| 20260506180430 | 14 | 24 | 8.0 | 20.9 | 0.00 | 1.09 | 1.09 | 35 | 1012.9 |
| 20260506175930 | 14 | 315 | 9.7 | 20.9 | 0.00 | 1.09 | 1.09 | 33 | 1012.9 |
| 20260506175430 | 14 | 334 | 9.7 | 22.5 | 0.00 | 1.09 | 1.09 | 31 | 1012.8 |
| 20260506174929 | 14 | 330 | 9.7 | 22.5 | 0.00 | 1.09 | 1.09 | 31 | 1012.7 |
| 20260506174430 | 13 | 317 | 9.7 | 19.3 | 0.00 | 1.09 | 1.09 | 32 | 1012.5 |
| 20260506173932 | 13 | 348 | 8.0 | 16.1 | 0.00 | 1.09 | 1.09 | 32 | 1012.8 |
| 20260506173430 | 13 | 323 | 8.0 | 16.1 | 0.00 | 1.09 | 1.09 | 32 | 1012.9 |
| 20260506172928 | 13 | 326 | 8.0 | 16.1 | 0.00 | 1.09 | 1.09 | 32 | 1012.9 |
| 20260506172430 | 13 | 329 | 8.0 | 16.1 | 0.00 | 1.09 | 1.09 | 32 | 1012.9 |
| 20260506172242 | 13 | 5 | 8.0 | 16.1 | 0.00 | 1.09 | 1.09 | 32 | 1012.8 |
| 20260506171737 | 13 | 0 | 11.3 | 17.7 | 0.00 | 1.09 | 1.09 | 32 | 1012.5 |
| 20260506171255 | 13 | 39 | 9.7 | 19.3 | 0.00 | 1.09 | 1.09 | 31 | 1012.5 |
| 20260506170918 | 13 | 38 | 6.4 | 12.9 | 0.00 | 1.09 | 1.09 | 31 | 1012.7 |
| 20260506170526 | 13 | 15 | 6.4 | 19.3 | 0.00 | 1.09 | 1.09 | 31 | 1012.7 |
| 20260506165753 | 13 | 337 | 6.4 | 14.5 | 0.00 | 1.09 | 1.09 | 32 | 1012.5 |
| 20260506164929 | 13 | 30 | 4.8 | 14.5 | 0.00 | 1.09 | 1.09 | 32 | 1012.5 |
| 20260506164758 | 12 | 323 | 4.8 | 14.5 | 0.00 | 1.09 | 1.09 | 32 | 1012.7 |
| 20260506164252 | 12 | 0 | 4.8 | 14.5 | 0.00 | 1.09 | 1.09 | 33 | 1012.4 |
| 20260506163427 | 12 | 28 | 4.8 | 14.5 | 0.00 | 1.09 | 1.09 | 33 | 1012.3 |
| 20260506162929 | 12 | 317 | 4.8 | 14.5 | 0.00 | 1.09 | 1.09 | 33 | 1012.5 |
| 20260506162429 | 12 | 22 | 3.2 | 14.5 | 0.00 | 1.09 | 1.09 | 33 | 1012.3 |
| 20260506161929 | 12 | 337 | 4.8 | 14.5 | 0.00 | 1.09 | 1.09 | 34 | 1012.2 |
| 20260506161747 | 12 | 355 | 3.2 | 14.5 | 0.00 | 1.09 | 1.09 | 34 | 1011.8 |
| 20260506160938 | 12 | 14 | 1.6 | 0.0 | 0.00 | 1.09 | 1.09 | 34 | 1011.8 |
| 20260506160401 | 12 | 17 | 3.2 | 14.5 | 0.00 | 1.09 | 1.09 | 34 | 1011.4 |
| 20260506155901 | 12 | 34 | 6.4 | 14.5 | 0.00 | 1.09 | 1.09 | 34 | 1011.2 |
| 20260506155401 | 12 | 17 | 8.0 | 14.5 | 0.00 | 1.09 | 1.09 | 34 | 1011.3 |
| 20260506154902 | 12 | 349 | 6.4 | 19.3 | 0.00 | 1.09 | 1.09 | 34 | 1011.4 |
| 20260506154402 | 12 | 309 | 6.4 | 19.3 | 0.00 | 1.09 | 1.09 | 34 | 1011.5 |
| 20260506153902 | 12 | 355 | 6.4 | 16.1 | 0.00 | 1.09 | 1.09 | 34 | 1011.4 |
| 20260506153402 | 12 | 350 | 3.2 | 16.1 | 0.03 | 1.09 | 1.09 | 34 | 1011.3 |
| 20260506153216 | 12 | 5 | 4.8 | 14.5 | 0.03 | 1.09 | 1.09 | 34 | 1011.4 |
| 20260506152721 | 13 | 5 | 4.8 | 16.1 | 0.03 | 1.09 | 1.09 | 33 | 1011.4 |
| 20260506152221 | 13 | 329 | 4.8 | 16.1 | 0.03 | 1.09 | 1.09 | 33 | 1011.4 |
| 20260506151716 | 13 | 348 | 1.6 | 14.5 | 0.03 | 1.09 | 1.09 | 32 | 1011.6 |
| 20260506151223 | 13 | 335 | 0.0 | 14.5 | 0.03 | 1.09 | 1.09 | 32 | 1011.0 |
| 20260506150404 | 13 | 276 | 0.0 | 8.0 | 0.03 | 1.09 | 1.09 | 32 | 1010.4 |
| 20260506145901 | 13 | 306 | 1.6 | 14.5 | 0.00 | 1.07 | 1.09 | 33 | 1010.0 |
| 20260506145401 | 12 | 325 | 1.6 | 14.5 | 0.05 | 1.07 | 1.09 | 34 | 1009.9 |
| 20260506144900 | 12 | 64 | 6.4 | 14.5 | 0.05 | 1.07 | 1.09 | 35 | 1009.8 |
| 20260506144401 | 12 | 89 | 8.0 | 19.3 | 0.10 | 1.07 | 1.09 | 37 | 1009.6 |
| 20260506143900 | 12 | 71 | 3.2 | 19.3 | 0.28 | 1.07 | 1.09 | 38 | 1009.9 |
| 20260506143405 | 12 | 69 | 1.6 | 14.5 | 0.58 | 1.07 | 1.07 | 38 | 1010.1 |
| 20260506143219 | 12 | 341 | 4.8 | 14.5 | 0.86 | 1.07 | 1.07 | 39 | 1010.4 |
| 20260506142720 | 12 | 40 | 8.0 | 0.0 | 1.02 | 1.07 | 1.07 | 39 | 1010.5 |
| 20260506142028 | 12 | 41 | 8.0 | 22.5 | 1.14 | 1.07 | 1.12 | 40 | 1010.9 |
| 20260506141529 | 12 | 0 | 9.7 | 27.4 | 1.12 | 1.07 | 1.09 | 40 | 1011.3 |
| 20260506141026 | 12 | 0 | 12.9 | 27.4 | 1.09 | 1.07 | 1.09 | 41 | 1010.5 |
| 20260506140525 | 12 | 0 | 12.9 | 24.1 | 1.09 | 1.07 | 1.09 | 42 | 1010.4 |
| 20260506140026 | 13 | 5 | 12.9 | 25.7 | 1.07 | 1.07 | 1.07 | 43 | 1010.2 |
| 20260506135524 | 13 | 323 | 14.5 | 25.7 | 1.04 | 0.00 | 1.02 | 45 | 1011.1 |
| 20260506135023 | 13 | 329 | 12.9 | 24.1 | 1.02 | 0.00 | 1.02 | 47 | 1010.3 |
| 20260506134523 | 13 | 26 | 12.9 | 25.7 | 0.99 | 0.00 | 0.97 | 49 | 1011.6 |
| 20260506134023 | 13 | 313 | 16.1 | 29.0 | 0.84 | 0.00 | 0.79 | 52 | 1011.2 |
| 20260506133855 | 14 | 313 | 17.7 | 29.0 | 0.58 | 0.00 | 0.56 | 53 | 1010.5 |
| 20260506133357 | 15 | 281 | 16.1 | 30.6 | 0.25 | 0.00 | 0.25 | 55 | 1011.2 |
| 20260506132522 | 15 | 5 | 16.1 | 30.6 | 0.10 | 0.00 | 0.08 | 59 | 1009.1 |
| 20260506132020 | 15 | 5 | 16.1 | 29.0 | 0.00 | 0.00 | 0.00 | 63 | 1009.2 |
| 20260506131520 | 16 | 334 | 16.1 | 29.0 | 0.00 | 0.00 | 0.00 | 65 | 1008.8 |
| 20260506131344 | 16 | 15 | 14.5 | 29.0 | 0.00 | 0.00 | 0.00 | 67 | 1008.0 |
| 20260506130525 | 16 | 9 | 12.9 | 25.7 | 0.00 | 0.00 | 0.00 | 66 | 1007.8 |
| 20260506130338 | 16 | 23 | 12.9 | 25.7 | 0.00 | 0.00 | 0.00 | 65 | 1008.1 |
| 20260506125834 | 16 | 23 | 11.3 | 25.7 | 0.00 | 0.00 | 0.00 | 64 | 1009.1 |
| 20260506125020 | 16 | 341 | 9.7 | 17.7 | 0.00 | 0.00 | 0.00 | 64 | 1008.6 |
| 20260506124518 | 16 | 39 | 9.7 | 16.1 | 0.00 | 0.00 | 0.00 | 63 | 1008.3 |
| 20260506124019 | 17 | 338 | 9.7 | 16.1 | 0.00 | 0.00 | 0.00 | 63 | 1008.9 |
| 20260506123518 | 17 | 0 | 9.7 | 17.7 | 0.00 | 0.00 | 0.00 | 63 | 1008.3 |
| 20260506123017 | 17 | 346 | 9.7 | 17.7 | 0.00 | 0.00 | 0.00 | 63 | 1008.4 |
| 20260506122828 | 17 | 355 | 9.7 | 17.7 | 0.00 | 0.00 | 0.00 | 63 | 1008.4 |
| 20260506122017 | 17 | 12 | 8.0 | 16.1 | 0.00 | 0.00 | 0.00 | 64 | 1008.3 |
| 20260506121517 | 17 | 12 | 8.0 | 16.1 | 0.00 | 0.00 | 0.00 | 64 | 1008.1 |
| 20260506121024 | 17 | 22 | 8.0 | 16.1 | 0.00 | 0.00 | 0.00 | 64 | 1008.0 |
| 20260506120527 | 17 | 15 | 6.4 | 14.5 | 0.00 | 0.00 | 0.00 | 63 | 1008.1 |
| 20260506115948 | 17 | 337 | 6.4 | 14.5 | 0.00 | 0.00 | 0.00 | 62 | 1008.3 |
| 20260506115443 | 17 | 0 | 4.8 | 12.9 | 0.00 | 0.00 | 0.00 | 61 | 1008.2 |
| 20260506114939 | 17 | 348 | 4.8 | 12.9 | 0.00 | 0.00 | 0.00 | 62 | 1008.2 |
| 20260506114439 | 17 | 339 | 6.4 | 12.9 | 0.00 | 0.00 | 0.00 | 61 | 1008.1 |
| 20260506113940 | 18 | 25 | 6.4 | 12.9 | 0.00 | 0.00 | 0.00 | 61 | 1008.1 |
| 20260506113439 | 18 | 23 | 4.8 | 12.9 | 0.00 | 0.00 | 0.00 | 59 | 1008.0 |
| 20260506112940 | 18 | 338 | 3.2 | 12.9 | 0.00 | 0.00 | 0.00 | 57 | 1008.0 |
| 20260506112746 | 18 | 346 | 3.2 | 12.9 | 0.00 | 0.00 | 0.00 | 55 | 1007.8 |
| 20260506112243 | 18 | 0 | 4.8 | 12.9 | 0.00 | 0.00 | 0.00 | 54 | 1007.8 |
| 20260506111438 | 18 | 5 | 3.2 | 12.9 | 0.00 | 0.00 | 0.00 | 53 | 1007.8 |
| 20260506110937 | 18 | 333 | 0.0 | 8.0 | 0.00 | 0.00 | 0.00 | 51 | 1008.0 |
| 20260506110742 | 18 | 5 | 0.0 | 6.4 | 0.00 | 0.00 | 0.00 | 50 | 1008.0 |
| 20260506105938 | 18 | 347 | 1.6 | 9.7 | 0.00 | 0.00 | 0.00 | 50 | 1008.1 |
| 20260506105439 | 18 | 355 | 3.2 | 12.9 | 0.00 | 0.00 | 0.00 | 50 | 1008.1 |
| 20260506105253 | 18 | 9 | 1.6 | 12.9 | 0.00 | 0.00 | 0.00 | 49 | 1008.0 |
| 20260506104436 | 18 | 326 | 1.6 | 8.0 | 0.00 | 0.00 | 0.00 | 47 | 1008.0 |
| 20260506103936 | 18 | 355 | 3.2 | 12.9 | 0.00 | 0.00 | 0.00 | 46 | 1008.0 |
| 20260506103433 | 18 | 22 | 3.2 | 12.9 | 0.00 | 0.00 | 0.00 | 47 | 1008.0 |
| 20260506102927 | 19 | 355 | 3.2 | 12.9 | 0.00 | 0.00 | 0.00 | 45 | 1008.0 |
| 20260506102428 | 19 | 0 | 1.6 | 12.9 | 0.00 | 0.00 | 0.00 | 43 | 1008.0 |
| 20260506102239 | 19 | 0 | 1.6 | 12.9 | 0.00 | 0.00 | 0.00 | 40 | 1007.9 |
| 20260506101742 | 19 | 9 | 3.2 | 12.9 | 0.00 | 0.00 | 0.00 | 37 | 1007.9 |
| 20260506100927 | 20 | 326 | 1.6 | 9.7 | 0.00 | 0.00 | 0.00 | 33 | 1008.0 |
| 20260506100427 | 20 | 331 | 1.6 | 9.7 | 0.00 | 0.00 | 0.00 | 29 | 1007.7 |
| 20260506095926 | 20 | 329 | 1.6 | 9.7 | 0.00 | 0.00 | 0.00 | 26 | 1007.6 |
| 20260506095424 | 20 | 350 | 0.0 | 1.6 | 0.00 | 0.00 | 0.00 | 21 | 1007.6 |
| 20260506094923 | 21 | 322 | 0.0 | 1.6 | 0.00 | 0.00 | 0.00 | 19 | 1007.6 |
| 20260506094830 | 21 | 170 | 0.0 | 0.0 | 0.00 | 0.00 | 0.00 | 19 | 1007.4 |
| 20260506094508 | 21 | 170 | 0.0 | 0.0 | 0.00 | 0.00 | 0.00 | 19 | 1007.5 |